Prescott, AZ

6:53 PM MST on October 13, 2019 (GMT -0700)
Love

Weather History for KPRC - August, 2019

Change the Weather History Date:

Monday, August 19, 2019

  Actual Average Record
Temperature  
Mean Temperature 76 °F 73 °F  
Max Temperature 93 °F 86 °F 97 °F (1960)
Min Temperature 59 °F 60 °F 50 °F (1990)
Degree Days  
Heating Degree Days 0    
Month to date heating degree days 0  
Since 1 July heating degree days 0  
Cooling Degree Days 11    
Month to date cooling degree days 237  
Year to date cooling degree days 805  
Growing Degree Days 27 (Base 50)    
Moisture  
Dew Point 33 °F    
Average Humidity 23    
Maximum Humidity 43    
Minimum Humidity 8    
Precipitation  
Precipitation 0.00 in 0.08 in 1.68 in (1984)
Month to date precipitation 0.30 1.69  
Year to date precipitation 8.11 8.73  
Sea Level Pressure  
Sea Level Pressure 29.88 in    
Wind  
Wind Speed 7 mph (SW)    
Max Wind Speed 16 mph    
Max Gust Speed 23 mph    
Visibility 10 miles    
Events      
T = Trace of Precipitation, MM = Missing Value Source: NWS Daily Summary

Daily Weather History Graph

Daily Weather History Graph

Search for Another Location

Airport or City:

Astronomy

Aug. 19, 2019 Rise Set
Actual Time 5:53 AM MST 7:12 PM MST
Civil Twilight 5:26 AM MST 7:39 PM MST
Nautical Twilight 4:55 AM MST 8:10 PM MST
Astronomical Twilight 4:22 AM MST 8:43 PM MST
Moon 9:45 PM MST (8/19) 9:29 AM MST (8/19)
Length of Visible Light 14h 12m
Length of Day
13h 19m
Waning Gibbous, 84% of the Moon is Illuminated
Aug 19
Waning Gibbous
Aug 23
Last Quarter
Aug 30
New
Sep 5
First Quarter
Sep 13
Full

Hourly Weather History & Observations

Time (MST) Temp. Dew Point Humidity Pressure Visibility Wind Dir Wind Speed Gust Speed Precip Events Conditions
12:53 AM 68.0 °F 37.0 °F 32% 29.86 in 10.0 mi Calm Calm - N/A   Clear
1:53 AM 64.9 °F 37.9 °F 37% 29.86 in 10.0 mi Calm Calm - N/A   Clear
2:53 AM 64.0 °F 39.0 °F 40% 29.87 in 10.0 mi SSW 5.8 mph - N/A   Clear
3:53 AM 64.0 °F 39.0 °F 40% 29.87 in 10.0 mi SSW 8.1 mph - N/A   Clear
4:53 AM 63.0 °F 39.0 °F 41% 29.88 in 10.0 mi SSW 10.4 mph - N/A   Clear
5:53 AM 63.0 °F 37.9 °F 40% 29.90 in 10.0 mi SSW 10.4 mph - N/A   Clear
6:53 AM 66.0 °F 37.9 °F 36% 29.92 in 10.0 mi South 9.2 mph - N/A   Clear
7:53 AM 73.0 °F 42.1 °F 33% 29.93 in 10.0 mi Calm Calm - N/A   Clear
8:53 AM 81.0 °F 37.9 °F 21% 29.92 in 10.0 mi Variable 4.6 mph - N/A   Clear
9:53 AM 86.0 °F 37.9 °F 18% 29.91 in 10.0 mi Variable 6.9 mph - N/A   Clear
10:53 AM 88.0 °F 32.0 °F 14% 29.92 in 10.0 mi South 9.2 mph 17.3 mph N/A   Clear
11:53 AM 89.1 °F 30.0 °F 12% 29.91 in 10.0 mi Variable 6.9 mph 17.3 mph N/A   Clear
12:53 PM 90.0 °F 28.0 °F 11% 29.90 in 10.0 mi Variable 3.5 mph 20.7 mph N/A   Clear
1:53 PM 91.0 °F 28.0 °F 10% 29.88 in 10.0 mi South 8.1 mph 18.4 mph N/A   Clear
2:53 PM 91.9 °F 28.0 °F 10% 29.87 in 10.0 mi West 13.8 mph 18.4 mph N/A   Clear
3:53 PM 91.9 °F 24.1 °F 9% 29.86 in 10.0 mi West 10.4 mph - N/A   Clear
4:53 PM 91.0 °F 23.0 °F 8% 29.86 in 10.0 mi West 8.1 mph - N/A   Clear
5:53 PM 90.0 °F 23.0 °F 9% 29.84 in 10.0 mi WSW 11.5 mph - N/A   Clear
6:53 PM 87.1 °F 25.0 °F 10% 29.85 in 10.0 mi WSW 8.1 mph - N/A   Clear
7:53 PM 82.0 °F 27.0 °F 13% 29.85 in 10.0 mi SW 9.2 mph - N/A   Clear
8:53 PM 75.9 °F 33.1 °F 21% 29.86 in 10.0 mi SSW 6.9 mph - N/A   Clear
9:53 PM 73.9 °F 32.0 °F 21% 29.87 in 10.0 mi SSW 8.1 mph - N/A   Clear
10:53 PM 73.0 °F 33.1 °F 23% 29.87 in 10.0 mi SSW 9.2 mph - N/A   Clear
11:53 PM 69.1 °F 37.0 °F 31% 29.88 in 10.0 mi SSW 5.8 mph - N/A   Clear